Location: ????
(33.1659°N, 35.6604°E)
Time: 06:14:31
(UTC+00:00)

MONITOR-E - Pass Details

Date: 20 September 2019
Orbit: 347 x 348 km, 97.1° (Epoch: 22 October)

Event Time Altitude Azimuth Distance (km) Brightness Sun altitude
Exits shadow 16:50:16 35° 152° (SSE) 598 4.7 -15.9°
Maximum altitude 16:51:17 70° 78° (ENE) 381 3.8 -16.1°
Drops below altitude 10° 16:54:06 10° 354° (N) 1,328 7.0 -16.7°
Sets 16:56:02 0° 352° (N) 2,176 8.2 -17.1°
